• In Czech Republic
  • List of Countries
  • For 7 days
  • Water Temperature
  • Satellite Maps
  • Weather Map
  • Weather Widgets
  • user-avatar
    Login

    Hourly Weather Belize

    Today, 19 August, Saturday

    Time Temperature Precipitation Wind Pressure Humidity
    00:00 +26°C° 0 mm 2 mps 760 mmHg 98%
    01:00 +26°C° 0.1 mm 2 mps 759 mmHg 98%
    02:00 +26°C° 0.1 mm 2 mps 759 mmHg 98%
    03:00 +26°C° 0.1 mm 2 mps 759 mmHg 99%
    04:00 +26°C° 0.4 mm 2 mps 759 mmHg 99%
    05:00 +26°C° 0.4 mm 2 mps 759 mmHg 99%
    06:00 +26°C° 0 mm 2 mps 759 mmHg 99%
    07:00 +28°C° 0.4 mm 2 mps 759 mmHg 93%
    08:00 +29°C° 0.4 mm 2 mps 760 mmHg 87%
    09:00 +31°C° 0.4 mm 2 mps 760 mmHg 81%
    10:00 +34°C° 0.1 mm 3 mps 759 mmHg 69%
    11:00 +35°C° 0.1 mm 3 mps 759 mmHg 57%
    12:00 +37°C° 0.1 mm 3 mps 759 mmHg 45%
    13:00 +37°C° 0 mm 3 mps 758 mmHg 45%
    14:00 +37°C° 0 mm 4 mps 758 mmHg 45%
    15:00 +37°C° 0 mm 4 mps 758 mmHg 44%
    16:00 +35°C° 0.1 mm 4 mps 758 mmHg 55%
    17:00 +33°C° 0.1 mm 4 mps 757 mmHg 66%
    18:00 +30°C° 0.1 mm 4 mps 757 mmHg 77%
    19:00 +29°C° 0 mm 4 mps 758 mmHg 83%
    20:00 +28°C° 0 mm 3 mps 758 mmHg 90%
    21:00 +27°C° 0 mm 3 mps 758 mmHg 97%
    22:00 +27°C° 0.2 mm 3 mps 758 mmHg 97%
    23:00 +27°C° 0.2 mm 3 mps 758 mmHg 97%

    Tomorrow, 20 August, Sunday

    Time Temperature Precipitation Wind Pressure Humidity
    00:00 +26°C° 0.2 mm 3 mps 758 mmHg 98%
    01:00 +26°C° 0.5 mm 3 mps 758 mmHg 98%
    02:00 +26°C° 0.5 mm 3 mps 758 mmHg 98%
    03:00 +26°C° 0.5 mm 2 mps 758 mmHg 98%
    04:00 +26°C° 1.1 mm 2 mps 758 mmHg 99%
    05:00 +26°C° 1.1 mm 2 mps 758 mmHg 99%
    06:00 +26°C° 1.1 mm 2 mps 758 mmHg 99%
    07:00 +27°C° 0.9 mm 2 mps 758 mmHg 93%
    08:00 +29°C° 0.9 mm 2 mps 759 mmHg 86%
    09:00 +31°C° 0.9 mm 2 mps 759 mmHg 80%
    10:00 +31°C° 1.4 mm 2 mps 759 mmHg 81%
    11:00 +32°C° 1.4 mm 2 mps 758 mmHg 82%
    12:00 +32°C° 1.4 mm 2 mps 758 mmHg 83%
    13:00 +33°C° 1.1 mm 3 mps 758 mmHg 85%
    14:00 +31°C° 1.1 mm 3 mps 757 mmHg 87%
    15:00 +31°C° 1.1 mm 3 mps 757 mmHg 89%
    16:00 +30°C° 0.7 mm 3 mps 757 mmHg 91%
    17:00 +29°C° 0.7 mm 3 mps 757 mmHg 93%
    18:00 +28°C° 0.7 mm 3 mps 757 mmHg 95%
    19:00 +28°C° 1 mm 4 mps 758 mmHg 96%
    20:00 +27°C° 1 mm 4 mps 758 mmHg 96%
    21:00 +27°C° 1 mm 4 mps 759 mmHg 97%
    22:00 +27°C° 0 mm 4 mps 759 mmHg 97%
    23:00 +27°C° 0 mm 3 mps 758 mmHg 97%

    Day after tomorrow, 21 August, Monday

    Time Temperature Precipitation Wind Pressure Humidity
    00:00 +27°C° 0 mm 3 mps 758 mmHg 97%
    01:00 +27°C° 0.1 mm 3 mps 758 mmHg 98%
    02:00 +27°C° 0.1 mm 3 mps 758 mmHg 98%
    03:00 +27°C° 0.1 mm 3 mps 758 mmHg 98%
    04:00 +27°C° 0.1 mm 2 mps 758 mmHg 98%
    05:00 +26°C° 0.1 mm 2 mps 758 mmHg 98%
    06:00 +26°C° 0.1 mm 2 mps 758 mmHg 99%
    07:00 +28°C° 0.4 mm 2 mps 759 mmHg 94%
    08:00 +29°C° 0.4 mm 2 mps 759 mmHg 89%
    09:00 +31°C° 0.4 mm 2 mps 759 mmHg 84%
    10:00 +31°C° 1.4 mm 2 mps 759 mmHg 83%
    11:00 +32°C° 1.4 mm 2 mps 759 mmHg 83%
    12:00 +32°C° 1.4 mm 2 mps 759 mmHg 83%
    13:00 +31°C° 1 mm 2 mps 758 mmHg 86%
    14:00 +31°C° 1 mm 2 mps 758 mmHg 88%
    15:00 +30°C° 1 mm 2 mps 757 mmHg 91%
    16:00 +29°C° 0.4 mm 2 mps 758 mmHg 93%
    17:00 +28°C° 0.4 mm 2 mps 758 mmHg 95%
    18:00 +27°C° 0.4 mm 2 mps 758 mmHg 97%
    19:00 +27°C° 0.2 mm 3 mps 758 mmHg 98%
    20:00 +27°C° 0.2 mm 3 mps 759 mmHg 98%
    21:00 +27°C° 0.2 mm 3 mps 759 mmHg 99%
    22:00 +26°C° 1.6 mm 4 mps 759 mmHg 99%
    23:00 +26°C° 1.6 mm 4 mps 759 mmHg 99%

    22 August, Tuesday

    Time Temperature Precipitation Wind Pressure Humidity
    00:00 +26°C° 1.6 mm 4 mps 758 mmHg 99%
    01:00 +26°C° 1.8 mm 5 mps 758 mmHg 99%
    02:00 +26°C° 1.8 mm 5 mps 757 mmHg 99%
    03:00 +26°C° 1.8 mm 5 mps 757 mmHg 99%
    04:00 +26°C° 1.9 mm 5 mps 757 mmHg 99%
    05:00 +26°C° 1.9 mm 6 mps 757 mmHg 99%
    06:00 +26°C° 1.9 mm 6 mps 757 mmHg 99%
    07:00 +27°C° 2.7 mm 6 mps 758 mmHg 98%
    08:00 +27°C° 2.7 mm 6 mps 758 mmHg 98%
    09:00 +27°C° 2.7 mm 7 mps 759 mmHg 97%
    10:00 +28°C° 2.9 mm 6 mps 758 mmHg 97%
    11:00 +28°C° 2.9 mm 6 mps 758 mmHg 96%
    12:00 +29°C° 2.9 mm 6 mps 758 mmHg 96%
    13:00 +29°C° 2.2 mm 6 mps 757 mmHg 96%
    14:00 +29°C° 2.2 mm 5 mps 757 mmHg 96%
    15:00 +29°C° 2.2 mm 5 mps 756 mmHg 95%
    16:00 +28°C° 1.6 mm 5 mps 756 mmHg 96%
    17:00 +27°C° 1.6 mm 6 mps 757 mmHg 97%
    18:00 +27°C° 1.6 mm 6 mps 757 mmHg 97%
    19:00 +27°C° 1.2 mm 6 mps 757 mmHg 97%
    20:00 +27°C° 1.2 mm 6 mps 758 mmHg 98%
    21:00 +27°C° 1.2 mm 6 mps 758 mmHg 98%
    22:00 +27°C° 3.3 mm 6 mps 758 mmHg 98%
    23:00 +27°C° 3.3 mm 6 mps 757 mmHg 98%

    23 August, Wednesday

    Time Temperature Precipitation Wind Pressure Humidity
    00:00 +26°C° 3.3 mm 7 mps 757 mmHg 97%
    01:00 +26°C° 6.9 mm 6 mps 757 mmHg 98%
    02:00 +26°C° 6.9 mm 6 mps 757 mmHg 98%
    03:00 +26°C° 6.9 mm 6 mps 756 mmHg 98%
    04:00 +26°C° 2.5 mm 5 mps 757 mmHg 98%
    05:00 +26°C° 2.5 mm 5 mps 757 mmHg 98%
    06:00 +26°C° 2.5 mm 4 mps 757 mmHg 99%
    07:00 +27°C° 1 mm 4 mps 757 mmHg 98%
    08:00 +27°C° 1 mm 4 mps 758 mmHg 98%
    09:00 +28°C° 1 mm 4 mps 758 mmHg 97%
    10:00 +28°C° 0.2 mm 3 mps 758 mmHg 95%
    11:00 +29°C° 0.2 mm 2 mps 758 mmHg 92%
    12:00 +30°C° 0.2 mm 2 mps 757 mmHg 89%
    13:00 +29°C° 0.1 mm 1 mps 757 mmHg 89%
    14:00 +29°C° 0.1 mm 1 mps 756 mmHg 89%
    15:00 +29°C° 0.1 mm 1 mps 756 mmHg 89%
    16:00 +29°C° 0 mm 1 mps 756 mmHg 90%
    17:00 +29°C° 0 mm 2 mps 756 mmHg 91%
    18:00 +28°C° 0 mm 3 mps 755 mmHg 91%
    19:00 +28°C° 0.1 mm 3 mps 756 mmHg 93%
    20:00 +27°C° 0.1 mm 3 mps 756 mmHg 94%
    21:00 +27°C° 0.1 mm 4 mps 757 mmHg 95%
    22:00 +27°C° 0.1 mm 4 mps 756 mmHg 96%
    23:00 +27°C° 0.1 mm 4 mps 756 mmHg 97%

    24 August, Thursday

    Time Temperature Precipitation Wind Pressure Humidity
    00:00 +27°C° 0.1 mm 5 mps 756 mmHg 98%
    01:00 +27°C° 0.1 mm 4 mps 755 mmHg 98%
    02:00 +27°C° 0.1 mm 4 mps 755 mmHg 98%
    03:00 +27°C° 0.1 mm 4 mps 755 mmHg 98%
    04:00 +27°C° 0.1 mm 4 mps 755 mmHg 98%
    05:00 +27°C° 0.1 mm 4 mps 755 mmHg 98%
    06:00 +27°C° 0.1 mm 4 mps 755 mmHg 98%
    07:00 +29°C° 0 mm 4 mps 755 mmHg 88%
    08:00 +32°C° 0 mm 5 mps 756 mmHg 79%
    09:00 +34°C° 0 mm 5 mps 756 mmHg 69%
    10:00 +34°C° 0 mm 5 mps 756 mmHg 66%
    11:00 +35°C° 0 mm 5 mps 755 mmHg 63%
    12:00 +36°C° 0 mm 5 mps 755 mmHg 60%
    13:00 +36°C° 0.1 mm 5 mps 754 mmHg 60%
    14:00 +35°C° 0.1 mm 5 mps 754 mmHg 60%
    15:00 +35°C° 0.1 mm 5 mps 753 mmHg 60%
    16:00 +34°C° 0 mm 5 mps 754 mmHg 68%
    17:00 +32°C° 0 mm 5 mps 754 mmHg 75%
    18:00 +30°C° 0 mm 5 mps 754 mmHg 82%
    19:00 +29°C° 0.2 mm 6 mps 754 mmHg 85%
    20:00 +29°C° 0.2 mm 6 mps 755 mmHg 88%
    21:00 +29°C° 0.2 mm 6 mps 755 mmHg 91%
    22:00 +29°C° 1.3 mm 6 mps 755 mmHg 89%
    23:00 +29°C° 1.3 mm 7 mps 755 mmHg 88%
    Show more